Hourly Data Report for October 17, 2013

All times are specified in Local Standard Time (LST). Add 1 hour to adjust for Daylight Saving Time where and when it is observed.

SAINT JOHN A
NEW BRUNSWICK

45°18'58.000" N
65°53'24.000" W
108.80 m
8104901
71609
YSJ

Download Data

Hourly Data (October 2013)
Hourly Data Report for October 17, 2013
Temp Definition
°C
Dew Point Temp Definition
°C
Rel Hum Definition
%
Wind Dir Definition
10's deg

Wind Spd Definition
km/h
Visibility Definition
km
Stn Press Definition
kPa
Hmdx Definition


Wind Chill Definition


Weather Definition


TIME
00:00 Legend Double Dagger 13.6 13.3 98 11 19 4.8 99.93     Rain,Fog
01:00 Legend Double Dagger 13.9 13.6 98 12 16 3.2 99.87     Rain,Fog
02:00 Legend Double Dagger 14.2 14.1 99 14 9 3.2 99.80     Rain,Fog
03:00 Legend Double Dagger 14.3 14.2 99 17 9 1.2 99.75     Fog
04:00 Legend Double Dagger 14.3 14.3 100 17 10 1.2 99.69     Fog
05:00 Legend Double Dagger 13.9 13.9 100 16 9 1.0 99.66     Fog
06:00 Legend Double Dagger 13.6 13.6 100 19 9 1.0 99.65     Fog
07:00 Legend Double Dagger 12.7 12.7 100 20 9 0.4 99.67     Fog
08:00 Legend Double Dagger 12.8 12.8 100 21 7 0.4 99.66     Fog
09:00 Legend Double Dagger 13.5 13.5 100 20 9 0.8 99.62     Fog
10:00 Legend Double Dagger 13.8 13.7 99 19 14 1.2 99.60     Fog
11:00 Legend Double Dagger 14.0 13.4 96 19 17 4.8 99.57     Fog
12:00 Legend Double Dagger 13.6 12.5 93 20 21 24.1 99.55     Fog
13:00 Legend Double Dagger 13.9 12.1 89 21 19 12.9 99.52     LegendNANA
14:00 Legend Double Dagger 13.2 12.1 93 20 17 16.1 99.45     Cloudy
15:00 Legend Double Dagger 13.4 12.3 93 20 14 16.1 99.47     LegendNANA
16:00 Legend Double Dagger 13.2 12.3 94 23 15 16.1 99.48     LegendNANA
17:00 Legend Double Dagger 12.4 11.9 97 21 16 1.6 99.45     Fog
18:00 Legend Double Dagger 11.7 11.6 99 22 15 0.8 99.47     Fog
19:00 Legend Double Dagger 11.9 11.9 100 23 16 0.8 99.50     Fog
20:00 Legend Double Dagger 11.9 11.9 100 23 10 0.4 99.51     Fog
21:00 Legend Double Dagger 11.8 11.8 100 21 13 0.4 99.54     Fog
22:00 Legend Double Dagger 11.8 11.8 100 21 10 0.8 99.54     Fog
23:00 Legend Double Dagger 11.6 11.6 100 21 15 0.4 99.51     Fog

Notes on Data Quality.

Legend

  • E = Estimated
  • M = Missing
  • NA = Not Available
  • ‡ = Partner data that is not subject to review by the National Climate Archives
Date modified: